www.pogodaiklimat.ru

Погода и климат >> Архив погоды >> Австралия >> Cooktown Airport


ПОГОДА в Cooktown Airport

  • Прогноз погоды в Cooktown Airport
  • Монитор погоды в Cooktown Airport
  • Климат города

АРХИВ ПОГОДЫ в Cooktown Airport

Время (UTC), дата Ветер
(напр.,м/с)
 
Видим.   Явления Облачность Т
(С)
Тd
(С)
f
(%)
Тe
(С)
Тes
(С)
Комфортность P
(гПа)
Po
(гПа)
Тmin
(С)
Tmax
(С)
R
(мм)
R24
(мм)
S
(см)
15 9.10 ЮВ 4 н/о н/о +23.8 +19.9 79 +29 +29 душно 1013.8 1013.1
18 9.10 В 3 н/о н/о +23.2 +19.3 79 +30 +30 очень
душно
1012.7 1012.0
21 9.10 В 3 н/о н/о +25.3 +19.0 68 +30 +30 душно 1014.4 1013.7
00 10.10 В 5 н/о н/о +28.8 +18.5 54 +34 +34 очень
душно
1015.3 1014.6
03 10.10 В 6 н/о н/о +28.4 +18.0 53 +33 +33 очень
душно
1013.4 1012.7
06 10.10 В 7 н/о н/о +27.2 +18.8 60 +32 +32 очень
душно
1011.9 1011.2
09 10.10 В 5 н/о н/о +23.9 +19.5 76 +29 +29 душно 1013.0 1012.3
12 10.10 В 4 н/о н/о +23.7 +19.8 79 +29 +29 душно 1014.6 1013.9
15 10.10 В 3 н/о н/о +23.2 +20.1 83 +30 +30 очень
душно
1013.3 1012.6
18 10.10 штиль 0 н/о н/о +21.8 +19.8 88 +27 +27 душно 1012.1 1011.4
21 10.10 штиль 0 н/о н/о +22.9 +20.1 84 +30 +30 очень
душно
1013.6 1012.9
00 11.10 В 5 н/о н/о +28.4 +19.1 57 +34 +34 очень
душно
1014.9 1014.2
03 11.10 В 5 н/о н/о +28.2 +18.5 56 +33 +33 очень
душно
1012.8 1012.1
08 11.10 В 5 н/о н/о +25.3 +19.7 71 +31 +31 очень
душно
1012.6 1012.0
09 11.10 В 2 н/о н/о +23.7 +19.6 78 +29 +29 душно 1013.1 1012.4
11 11.10 штиль 0 н/о н/о +22.3 +20.3 88 +29 +29 очень
душно
1014.2 1013.6
12 11.10 ЮВ 1 н/о н/о +22.4 +20.4 88 +29 +29 очень
душно
1015.0 1014.3
14 11.10 СЗ 2 н/о 9/9 600 м
[]
+20.8 +19.4 92 +26 +26 душно 1014.8 1014.2 +30.0
15 11.10 штиль 0 н/о н/о +21.4 +19.5 89 +26 +26 душно 1014.1 1013.4
17 11.10 штиль 0 н/о н/о +19.8 +18.5 92 +22 +22 комфорт 1012.3 1011.7
18 11.10 З 2 н/о н/о +20.2 +19.2 94 +25 +25 комфорт 1012.9 1012.2
20 11.10 штиль 0 н/о н/о +18.6 +17.8 95 +20 +20 1014.0 1013.4
21 11.10 ЮЗ 2 н/о н/о +21.1 +19.8 92 +26 +26 душно 1014.8 1014.1
23 11.10 Ю 2 н/о 1/1 1000 м
[]
+27.3 +19.9 64 +33 +42 очень
душно
1015.1 1014.5
00 12.10 СВ 3 н/о н/о +30.0 +19.1 52 +35 +35 очень
душно
1014.9 1014.2
02 12.10 В 7 н/о н/о +29.1 +18.5 53 +34 +34 очень
душно
1013.1 1012.5 +18.4
03 12.10 В 7 н/о н/о +29.4 +19.4 55 +35 +35 очень
душно
1011.9 1011.2
05 12.10 В 7 н/о н/о +29.0 +20.7 61 +36 +36 очень
душно
1010.3 1009.7
06 12.10 В 7 н/о н/о +28.5 +20.1 60 +35 +35 очень
душно
1010.3 1009.6
08 12.10 В 4 н/о н/о +26.0 +22.1 79 +34 +34 очень
душно
1011.0 1010.4
09 12.10 В 3 н/о н/о +25.1 +22.0 83 +32 +32 очень
душно
1011.9 1011.2
11 12.10 штиль 0 н/о н/о +23.8 +22.0 90 +31 +31 очень
душно
1012.4 1011.8
12 12.10 С 1 н/о н/о +22.8 +21.3 91 +30 +30 очень
душно
1012.9 1012.2
14 12.10 штиль 0 н/о 10/10 300 м
[]
+23.7 +21.9 90 +31 +31 очень
душно
1012.7 1012.1 +31.3
15 12.10 штиль 0 н/о н/о +24.2 +22.1 88 +31 +31 очень
душно
1012.3 1011.6
17 12.10 В 1 н/о 1/1 300 м
[]
+23.4 +22.2 93 +32 +32 очень
душно
1011.7 1011.1
18 12.10 штиль 0 н/о н/о +22.8 +21.6 93 +30 +30 очень
душно
1012.0 1011.3
20 12.10 штиль 0 4500 м {туман} 10/10 200 м
[]
+23.5 +22.8 96 +31 +31 очень
душно
1013.2 1012.6
21 12.10 штиль 0 н/о н/о +24.3 +23.6 96 +33 +33 очень
душно
1013.6 1012.9
23 12.10 В 4 н/о {туман} 10/10 1000 м
[]
+27.9 +23.1 75 +37 +37 очень
душно
1014.2 1013.6
02 13.10 В 7 н/о {туман} н/о +30.1 +22.9 65 +40 +40 очень
душно
1012.2 1011.6 +22.2
03 13.10 В 7 н/о н/о +29.9 +22.9 66 +40 +40 очень
душно
1011.2 1010.5
05 13.10 В 8 н/о {туман} н/о +29.3 +23.0 69 +39 +39 очень
душно
1009.5 1008.9
06 13.10 В 7 н/о н/о +28.4 +23.6 75 +39 +39 очень
душно
1009.5 1008.8
08 13.10 В 5 н/о 10/10 300 м
[]
+26.6 +23.5 83 +36 +36 очень
душно
1010.6 1010.0
09 13.10 В 5 н/о н/о +26.1 +23.9 88 +36 +36 очень
душно
1011.2 1010.5
11 13.10 В 4 н/о 10/10 300 м
[]
+26.0 +24.0 89 +36 +36 очень
душно
1012.5 1011.9
12 13.10 В 3 н/о н/о +25.7 +23.8 89 +35 +35 очень
душно
1013.0 1012.3
14 13.10 В 5 н/о 10/10 300 м
[]
+24.5 +21.6 84 +31 +31 очень
душно
1012.8 1012.2 +31.3
15 13.10 штиль 0 н/о н/о +24.5 +22.1 86 +32 +32 очень
душно
1012.4 1011.7
17 13.10 З 2 н/о 10/10 300 м
[]
+23.7 +22.7 94 +31 +31 очень
душно
1011.1 1010.5
18 13.10 Ю 4 н/о н/о +23.7 +22.4 92 +31 +31 очень
душно
1011.6 1010.9
20 13.10 СВ 3 2100 м {туман} 10/10 300 м
[]
+22.6 +22.0 96 +30 +30 очень
душно
1013.1 1012.5
21 13.10 штиль 0 н/о н/о +22.7 +22.2 97 +31 +31 очень
душно
1014.6 1013.9
23 13.10 ЮЗ 1 н/о {туман} 10/10 300 м
[]
+24.4 +23.1 92 +32 +32 очень
душно
1014.7 1014.1
00 14.10 Ю 2 н/о н/о +25.5 +22.8 85 +34 +34 очень
душно
1014.9 1014.2
02 14.10 ЮВ 5 н/о 10/10 300 м
[]
+27.7 +23.0 76 +37 +37 очень
душно
1013.5 1012.9 +22.6
03 14.10 В 6 н/о н/о +27.8 +23.0 75 +37 +37 очень
душно
1012.8 1012.1
05 14.10 В 6 н/о н/о +28.1 +22.2 70 +37 +37 очень
душно
1011.5 1010.9
06 14.10 В 6 н/о н/о +26.5 +23.3 83 +36 +36 очень
душно
1011.5 1010.8
08 14.10 В 2 н/о 1/0
[]
+25.3 +22.8 86 +33 +34 очень
душно
1011.8 1011.2
09 14.10 штиль 0 н/о н/о +24.2 +22.9 92 +32 +32 очень
душно
1012.1 1011.4
11 14.10 ЮВ 2 н/о 10/10 300 м
[]
+24.4 +22.8 91 +32 +32 очень
душно
1013.7 1013.1
12 14.10 ЮВ 3 н/о н/о +24.9 +22.8 88 +33 +33 очень
душно
1014.0 1013.3
14 14.10 ЮВ 3 н/о 8/8 300 м
[]
+24.8 +22.4 87 +32 +32 очень
душно
1013.8 1013.2 +29.9
15 14.10 ЮВ 3 н/о н/о +24.8 +22.6 88 +33 +33 очень
душно
1013.5 1012.8
17 14.10 В 4 н/о 6/6 1000 м
[]
+24.9 +22.7 88 +33 +33 очень
душно
1012.6 1012.0
18 14.10 ЮВ 4 н/о н/о +25.0 +22.9 88 +33 +33 очень
душно
1012.9 1012.2
20 14.10 В 5 н/о 10/10 300 м
[]
+25.3 +22.6 85 +33 +33 очень
душно
1013.8 1013.2
21 14.10 В 4 н/о н/о +25.8 +23.0 85 +34 +34 очень
душно
1014.6 1013.9
23 14.10 В 7 н/о 9/9 300 м
[]
+28.2 +22.1 70 +37 +37 очень
душно
1015.7 1015.1
00 15.10 В 5 н/о н/о +28.6 +21.9 67 +37 +37 очень
душно
1015.7 1015.0
02 15.10 В 6 н/о 1/1 600 м
[]
+29.9 +20.4 57 +37 +44 очень
душно
1014.5 1013.9 +23.8
03 15.10 В 6 н/о н/о +29.4 +21.5 63 +37 +37 очень
душно
1013.8 1013.1
05 15.10 В 7 н/о н/о +29.2 +21.3 62 +37 +37 очень
душно
1012.1 1011.5
06 15.10 В 7 н/о н/о +28.9 +22.1 67 +38 +38 очень
душно
1011.8 1011.1
08 15.10 В 5 н/о 5/5 300 м
[]
+26.3 +22.9 82 +35 +35 очень
душно
1012.5 1011.9
09 15.10 В 4 н/о н/о +25.8 +23.1 85 +34 +34 очень
душно
1013.0 1012.3
11 15.10 В 4 н/о 10/10 300 м
[]
+25.5 +23.3 88 +34 +34 очень
душно
1013.5 1012.9
12 15.10 В 3 н/о н/о +25.1 +23.2 89 +34 +34 очень
душно
1014.0 1013.3
14 15.10 В 3 н/о 5/5 300 м
[]
+24.9 +22.7 88 +33 +33 очень
душно
1014.2 1013.6 +30.8
15 15.10 В 2 н/о н/о +24.5 +22.4 88 +32 +32 очень
душно
1013.7 1013.0
17 15.10 В 3 н/о н/о +24.1 +21.8 87 +31 +31 очень
душно
1012.7 1012.1
18 15.10 ЮВ 1 н/о н/о +23.3 +21.8 91 +32 +32 очень
душно
1012.5 1011.8
20 15.10 штиль 0 н/о 3/0
[]
+22.3 +21.4 95 +29 +29 очень
душно
1013.4 1012.8
21 15.10 ЮВ 2 н/о н/о +25.2 +22.7 86 +33 +33 очень
душно
1014.4 1013.7
23 15.10 ЮВ 5 н/о 6/6 600 м
[]
+27.4 +21.9 72 +35 +37 очень
душно
1015.3 1014.7
00 16.10 В 6 н/о н/о +28.0 +21.6 68 +36 +36 очень
душно
1015.1 1014.4
02 16.10 В 6 н/о 3/3 600 м
[]
+28.4 +21.8 67 +36 +43 очень
душно
1013.7 1013.1 +22.3
03 16.10 В 7 н/о н/о +28.7 +21.7 66 +37 +37 очень
душно
1012.6 1011.9
05 16.10 В 6 н/о 1/1 600 м
[]
+28.2 +21.0 65 +35 +41 очень
душно
1011.2 1010.6
06 16.10 В 6 н/о н/о +27.6 +21.5 69 +35 +35 очень
душно
1011.4 1010.7
08 16.10 В 5 н/о 3/3 300 м
[]
+26.0 +21.8 78 +33 +34 очень
душно
1011.5 1010.9
09 16.10 В 3 н/о н/о +25.3 +22.0 82 +33 +33 очень
душно
1012.9 1012.2
11 16.10 ЮВ 3 н/о н/о +24.6 +21.9 85 +32 +32 очень
душно
1014.5 1013.9

 

Местоположение метеостанции Cooktown Airport (Квинсленд, Австралия): широта -15.45 долгота 145.18 высота над уровнем моря 6 м.

В архиве по умолчанию представлена погода в Cooktown Airport за последнюю неделю. Архивные данные за месяц целиком и за предыдущие месяцы, начиная с января 2011 года, Вы можете получить, выбрав интересующий диапазон дат из раскрывающегося списка и нажав кнопку "Ввод!".


*Определитесь, кто Вы:
робот инопланетянин человек

Внимание! Время в таблицах - всемирное. Для получения местного времени необходимо прибавить поправку, которая в Cooktown Airport равна 10 ч.

Смотрите также архив погоды в соседних городах и на ближайших метеорологических станциях:

Погода в Cape Flattery (Квинсленд, Австралия) (55 км)
Погода в Low Islandes Lighthouse (Квинсленд, Австралия) (112 км)
Погода в Palmerville (Квинсленд, Австралия) (134 км)
Погода в Cairns Airport (Квинсленд, Австралия) (170 км)
Погода в Arlington Reef (Квинсленд, Австралия) (173 км)
Погода в Mareeba Airport Aws (Квинсленд, Австралия) (182 км)
Погода в Bougainville Reef (Квинсленд, Австралия) (207 км)
Погода в South Johnstone Exp Stn (Квинсленд, Австралия) (255 км)
Погода в Coen Airport (Квинсленд, Австралия) (290 км)
Погода в Holmes Reef (Квинсленд, Австралия) (308 км)

Пояснения к столбцам:

Ветер - указаны скорость ветра в м/с - средняя за 10 мин, порывы в срок и между сроками (в фигурных скобках) и направление, откуда дует ветер: С - северный, СВ - северо-восточный, В - восточный, ЮВ - юго-восточный, Ю - южный, ЮЗ - юго-западный, З - западный, СЗ - северо-западный.
Видимость - горизонтальная дальность видимости в метрах или километрах. При видимости от 1 до 10 км при отсутствии осадков обычно наблюдается дымка, при ухудшении видимости до 1 км и менее - туман. В сухую погоду видимость может ухудшаться дымом, пылью или мглою.
Явления - указаны атмосферные явления, наблюдавшиеся в срок или в последний час перед сроком; фигурными скобками обозначены явления, наблюдавшиеся между сроками (за 1-3 часа до срока); квадратными скобками обозначены град или гололедные отложения с указанием их диаметра в мм.
Облачность - указаны через наклонную черту общая и нижняя облачность в баллах и высота нижней границы облаков в метрах; квадратными скобками обозначены формы облаков: Ci - перистые, Cs - перисто-слоистые, Cc - перисто-кучевые, Ac - высококучевые, As - высокослоистые, Sc - слоисто-кучевые, Ns - слоисто-дождевые, Cu - кучевые, Cb - кучево-дождевые. Подробнее классификацию облаков см. в Атласе облаков (PDF).
T - Температура воздуха - температура, измеренная на высоте 2 м над землей.
Td - Температура точки росы - температура, при понижении до которой содержащийся в воздухе водяной пар достигнет насыщения.
f - Относительная влажность воздуха - влажноcть воздуха, измеренная на высоте 2 м над землей.
Te - Эффективная температура - температура, которую ощущает одетый по сезону человек в тени. Характеристика душности погоды. При расчете учитывается влияние влажности воздуха и скорости ветра на теплоощущения человека.
Tes - Эффективная температура на солнце - температура, которую ощущает человек, с поправкой на солнечный нагрев. Характеристика знойности погоды. Зависит от высоты солнца над горизонтом, облачности и скорости ветра. Ночью, в пасмурную погоду, а также при ветре 12 м/с и более поправка равна нулю.
P - Атмосферное давление - приведенное к уровню моря атмосферное давление.
Po - Атмосферное давление - измеренное на уровне метеостанции атмосферное давление.
Tmin - Минимальная температура - минимум температуры воздуха на высоте 2 м над землей.
Tmax - Максимальная температура - максимум температуры воздуха на высоте 2 м над землей.
R - Количество осадков - Количество выпавших осадков за период времени, мм. При наведении курсора мыши на число - период времени, за который выпало указанное количество осадков.
R24 - Количество осадков - Количество выпавших осадков за 24 часа, мм.
S - Снежный покров - Высота снежного покрова, см. При наведении курсора мыши на число - состояние снежного покрова и степень покрытия местности в баллах.